Volver al catálogo

DMC 3-FM3

ActivoCienciaSSO
NORAD 40717·PAYLOAD·🇬🇧 United Kingdom

Lanzado Jul 10, 2015 desde Satish Dhawan Space Centre

Loading…

Próximos Pases (próximas 24 horas)

TLE

ActualizadoSource: Space-Track

Época: Sep 14, 2026, 14:51 UTC

1 40717U 15032C   26257.61935601  .00000055  00000-0  12158-4 0  9994
2 40717  97.6418 122.6737 0006471 114.6764 245.5126 14.85813236603196

Sigue DMC 3-FM3 en tiempo real con AllMySat

Download on the App Store